Cloquet, MN

8:52 PM CST on December 08, 2019 (GMT -0600)
Cloquet Carlton County

Weather History for KCOQ - October, 2019

Change the Weather History Date:

Thursday, October 17, 2019

  Actual Average Record
Temperature  
Mean Temperature 40 °F -  
Max Temperature 51 °F 50 °F 68 °F (1998)
Min Temperature 30 °F 33 °F 24 °F (2001)
Degree Days  
Heating Degree Days 24    
Moisture  
Dew Point 35 °F    
Average Humidity 79    
Maximum Humidity 100    
Minimum Humidity 50    
Precipitation  
Precipitation 0.00 in - - ()
Sea Level Pressure  
Sea Level Pressure 29.98 in    
Wind  
Wind Speed 2 mph ()    
Max Wind Speed 10 mph    
Max Gust Speed 16 mph    
Visibility 9.7 miles    
Events      
Averages and records for this station are not official NWS values.
T = Trace of Precipitation, MM = Missing Value Source: Averaged Metar Reports

Daily Weather History Graph

Daily Weather History Graph

Search for Another Location

Airport or City:

Astronomy

Oct. 17, 2019 Rise Set
Actual Time 7:30 AM CDT 6:19 PM CDT
Civil Twilight 6:59 AM CDT 6:50 PM CDT
Nautical Twilight 6:24 AM CDT 7:25 PM CDT
Astronomical Twilight 5:49 AM CDT 8:00 PM CDT
Moon 8:40 PM CDT (10/17) 11:13 AM CDT (10/17)
Length of Visible Light 11h 50m
Length of Day
10h 49m
Waning Gibbous, 86% of the Moon is Illuminated
Oct 17
Waning Gibbous
Oct 21
Last Quarter
Oct 27
New
Nov 4
First Quarter
Nov 12
Full

Hourly Weather History & Observations

Time (CDT) Temp. Windchill Dew Point Humidity Pressure Visibility Wind Dir Wind Speed Gust Speed Precip Events Conditions
12:15 AM 41.0 °F - 35.6 °F 81% 30.02 in 10.0 mi Calm Calm - N/A   Overcast
12:16 AM 41.0 °F - 35.6 °F 81% 30.02 in 10.0 mi Calm Calm - N/A   Overcast
12:35 AM 41.0 °F - 35.6 °F 81% 30.02 in 10.0 mi Calm Calm - N/A   Overcast
12:55 AM 41.0 °F - 35.6 °F 81% 30.02 in 10.0 mi Calm Calm - N/A   Overcast
12:56 AM 41.0 °F - 35.6 °F 81% 30.02 in 10.0 mi Calm Calm - N/A   Overcast
1:15 AM 41.0 °F - 35.6 °F 81% 30.02 in 10.0 mi Calm Calm - N/A   Overcast
1:16 AM 41.0 °F - 35.6 °F 81% 30.02 in 10.0 mi Calm Calm - N/A   Overcast
1:35 AM 39.2 °F 37.0 °F 35.6 °F 87% 30.02 in 10.0 mi West 3.5 mph - N/A   Overcast
1:55 AM 39.2 °F - 35.6 °F 87% 30.01 in 10.0 mi Calm Calm - N/A   Overcast
1:56 AM 39.2 °F - 35.6 °F 87% 30.01 in 10.0 mi Calm Calm - N/A   Overcast
2:15 AM 39.2 °F 37.0 °F 35.6 °F 87% 30.01 in 10.0 mi West 3.5 mph - N/A   Overcast
2:35 AM 39.2 °F - 35.6 °F 87% 30.01 in 10.0 mi Calm Calm - N/A   Overcast
2:55 AM 39.2 °F - 35.6 °F 87% 30.00 in 10.0 mi Calm Calm - N/A   Mostly Cloudy
2:56 AM 39.2 °F - 35.6 °F 87% 30.00 in 10.0 mi Calm Calm - N/A   Mostly Cloudy
3:15 AM 39.2 °F - 35.6 °F 87% 29.99 in 10.0 mi Calm Calm - N/A   Scattered Clouds
3:35 AM 39.2 °F - 35.6 °F 87% 30.00 in 10.0 mi Calm Calm - N/A   Scattered Clouds
3:36 AM 39.2 °F - 35.6 °F 87% 30.00 in 10.0 mi Calm Calm - N/A   Scattered Clouds
3:55 AM 39.2 °F - 35.6 °F 87% 30.00 in 10.0 mi Calm Calm - N/A   Clear
4:15 AM 37.4 °F - 35.6 °F 93% 29.99 in 10.0 mi Calm Calm - N/A   Clear
4:16 AM 37.4 °F - 35.6 °F 93% 29.99 in 10.0 mi Calm Calm - N/A   Clear
4:35 AM 37.4 °F - 35.6 °F 93% 30.00 in 10.0 mi Calm Calm - N/A   Clear
4:36 AM 37.4 °F - 35.6 °F 93% 30.00 in 10.0 mi Calm Calm - N/A   Clear
4:55 AM 37.4 °F - 35.6 °F 93% 30.00 in 10.0 mi Calm Calm - N/A   Clear
5:15 AM 35.6 °F - 33.8 °F 93% 30.00 in 10.0 mi Calm Calm - N/A   Clear
5:16 AM 35.6 °F - 33.8 °F 93% 30.00 in 10.0 mi Calm Calm - N/A   Clear
5:35 AM 37.4 °F - 35.6 °F 93% 30.00 in 10.0 mi Calm Calm - N/A   Clear
5:55 AM 35.6 °F - 33.8 °F 93% 30.00 in 10.0 mi Calm Calm - N/A   Clear
5:56 AM 35.6 °F - 33.8 °F 93% 30.00 in 10.0 mi Calm Calm - N/A   Clear
6:15 AM 35.6 °F - 33.8 °F 93% 30.01 in 10.0 mi Calm Calm - N/A   Clear
6:35 AM 33.8 °F - 33.8 °F 100% 30.01 in 1.0 mi Calm Calm - N/A   Mist
6:55 AM 33.8 °F - 30.2 °F 87% 30.01 in 1.0 mi Calm Calm - N/A   Mist
6:56 AM 33.8 °F - 30.2 °F 87% 30.01 in 1.0 mi Calm Calm - N/A   Mist
7:15 AM 32.0 °F - 30.2 °F 93% 30.01 in 10.0 mi Calm Calm - N/A   Clear
7:35 AM 32.0 °F - 30.2 °F 93% 30.01 in 1.8 mi Calm Calm - N/A   Mist
7:55 AM 30.2 °F - 30.2 °F 100% 30.01 in 10.0 mi Calm Calm - N/A   Clear
7:56 AM 30.2 °F - 30.2 °F 100% 30.01 in 10.0 mi Calm Calm - N/A   Clear
8:15 AM 32.0 °F - 30.2 °F 93% 30.02 in 10.0 mi Calm Calm - N/A   Clear
8:35 AM 33.8 °F - 32.0 °F 93% 30.02 in 10.0 mi Calm Calm - N/A   Clear
8:55 AM 37.4 °F - 35.6 °F 93% 30.02 in 10.0 mi Calm Calm - N/A   Clear
9:15 AM 39.2 °F - 35.6 °F 87% 30.02 in 10.0 mi Calm Calm - N/A   Clear
9:16 AM 39.2 °F - 35.6 °F 87% 30.02 in 10.0 mi Calm Calm - N/A   Clear
9:35 AM 41.0 °F 39.0 °F 35.6 °F 81% 30.02 in 10.0 mi ESE 3.5 mph - N/A   Clear
9:55 AM 42.8 °F 41.1 °F 35.6 °F 76% 30.02 in 10.0 mi East 3.5 mph - N/A   Clear
10:15 AM 44.6 °F - 35.6 °F 71% 30.02 in 10.0 mi Calm Calm - N/A   Scattered Clouds
10:16 AM 44.6 °F 43.1 °F 35.6 °F 71% 30.02 in 10.0 mi SE 3.5 mph - N/A   Scattered Clouds
10:35 AM 44.6 °F 43.1 °F 35.6 °F 71% 30.02 in 10.0 mi SSE 3.5 mph - N/A   Scattered Clouds
10:55 AM 44.6 °F 43.1 °F 35.6 °F 71% 30.02 in 10.0 mi SSE 3.5 mph - N/A   Mostly Cloudy
10:56 AM 44.6 °F - 35.6 °F 71% 30.02 in 10.0 mi Calm Calm - N/A   Mostly Cloudy
11:15 AM 46.4 °F 45.2 °F 33.8 °F 62% 30.02 in 10.0 mi SE 3.5 mph - N/A   Mostly Cloudy
11:16 AM 46.4 °F 44.3 °F 35.6 °F 66% 30.02 in 10.0 mi ESE 4.6 mph - N/A   Mostly Cloudy
11:35 AM 46.4 °F 42.9 °F 35.6 °F 66% 30.02 in 10.0 mi SE 6.9 mph - N/A   Mostly Cloudy
11:55 AM 46.4 °F 45.2 °F 33.8 °F 62% 30.01 in 10.0 mi SSE 3.5 mph - N/A   Scattered Clouds
11:56 AM 46.4 °F 45.2 °F 33.8 °F 62% 30.01 in 10.0 mi SSE 3.5 mph - N/A   Scattered Clouds
12:15 PM 48.2 °F - 35.6 °F 62% 30.00 in 10.0 mi SSE 6.9 mph - N/A   Scattered Clouds
12:35 PM 48.2 °F - 35.6 °F 62% 30.00 in 10.0 mi SSE 5.8 mph - N/A   Scattered Clouds
12:55 PM 48.2 °F - 35.6 °F 62% 29.99 in 10.0 mi East 6.9 mph - N/A   Scattered Clouds
1:15 PM 48.2 °F - 33.8 °F 58% 29.99 in 10.0 mi ESE 8.1 mph - N/A   Mostly Cloudy
1:16 PM 48.2 °F - 33.8 °F 58% 29.99 in 10.0 mi ESE 8.1 mph - N/A   Mostly Cloudy
1:35 PM 50.0 °F - 35.6 °F 58% 29.99 in 10.0 mi ESE 5.8 mph - N/A   Mostly Cloudy
1:36 PM 50.0 °F - 35.6 °F 58% 29.99 in 10.0 mi SE 5.8 mph - N/A   Mostly Cloudy
1:55 PM 50.0 °F - 35.6 °F 58% 29.98 in 10.0 mi SE 5.8 mph - N/A   Mostly Cloudy
1:56 PM 51.8 °F - 35.6 °F 54% 29.98 in 10.0 mi SSE 5.8 mph - N/A   Mostly Cloudy
2:16 PM 50.0 °F - 33.8 °F 54% 29.97 in 10.0 mi SE 4.6 mph - N/A   Scattered Clouds
2:35 PM 51.8 °F - 33.8 °F 50% 29.96 in 10.0 mi South 5.8 mph - N/A   Scattered Clouds
2:55 PM 51.8 °F - 33.8 °F 50% 29.96 in 10.0 mi East 6.9 mph - N/A   Clear
3:15 PM 51.8 °F - 35.6 °F 54% 29.95 in 10.0 mi SSE 6.9 mph - N/A   Scattered Clouds
3:16 PM 51.8 °F - 35.6 °F 54% 29.95 in 10.0 mi SSE 6.9 mph - N/A   Scattered Clouds
3:35 PM 51.8 °F - 33.8 °F 50% 29.95 in 10.0 mi ESE 4.6 mph - N/A   Scattered Clouds
3:36 PM 51.8 °F - 33.8 °F 50% 29.95 in 10.0 mi SE 4.6 mph - N/A   Scattered Clouds
3:55 PM 51.8 °F - 33.8 °F 50% 29.94 in 10.0 mi SE 4.6 mph - N/A   Mostly Cloudy
3:56 PM 51.8 °F - 33.8 °F 50% 29.94 in 10.0 mi SE 4.6 mph - N/A   Mostly Cloudy
4:15 PM 51.8 °F - 35.6 °F 54% 29.94 in 10.0 mi ESE 9.2 mph - N/A   Scattered Clouds
4:35 PM 50.0 °F - 35.6 °F 58% 29.93 in 10.0 mi East 8.1 mph - N/A   Clear
4:55 PM 48.2 °F - 35.6 °F 62% 29.94 in 10.0 mi East 8.1 mph - N/A   Clear
4:56 PM 48.2 °F - 35.6 °F 62% 29.93 in 10.0 mi East 8.1 mph - N/A   Clear
5:15 PM 48.2 °F - 35.6 °F 62% 29.93 in 10.0 mi East 6.9 mph - N/A   Clear
5:35 PM 46.4 °F 41.9 °F 35.6 °F 66% 29.92 in 10.0 mi East 9.2 mph - N/A   Clear
5:36 PM 46.4 °F 42.4 °F 35.6 °F 66% 29.92 in 10.0 mi East 8.1 mph - N/A   Clear
5:55 PM 44.6 °F 39.2 °F 37.4 °F 76% 29.92 in 10.0 mi East 10.4 mph 16.1 mph N/A   Clear
6:15 PM 42.8 °F 37.5 °F 37.4 °F 81% 29.92 in 10.0 mi East 9.2 mph - N/A   Clear
6:35 PM 42.8 °F 37.5 °F 37.4 °F 81% 29.92 in 10.0 mi East 9.2 mph - N/A   Clear
6:55 PM 42.8 °F 38.6 °F 37.4 °F 81% 29.92 in 10.0 mi East 6.9 mph - N/A   Clear
7:15 PM 42.8 °F 38.6 °F 37.4 °F 81% 29.92 in 10.0 mi East 6.9 mph - N/A   Clear
7:16 PM 42.8 °F 38.6 °F 37.4 °F 81% 29.92 in 10.0 mi East 6.9 mph - N/A   Clear
7:35 PM 41.0 °F 35.8 °F 37.4 °F 87% 29.93 in 10.0 mi East 8.1 mph - N/A   Clear
7:55 PM 41.0 °F 37.1 °F 37.4 °F 87% 29.93 in 10.0 mi East 5.8 mph - N/A   Clear
8:15 PM 41.0 °F 35.8 °F 37.4 °F 87% 29.93 in 10.0 mi East 8.1 mph - N/A   Clear
8:16 PM 41.0 °F 35.8 °F 37.4 °F 87% 29.93 in 10.0 mi East 8.1 mph - N/A   Clear
8:35 PM 41.0 °F 38.0 °F 37.4 °F 87% 29.93 in 10.0 mi East 4.6 mph - N/A   Clear
8:55 PM 39.2 °F 37.0 °F 37.4 °F 93% 29.92 in 10.0 mi ESE 3.5 mph - N/A   Clear
8:56 PM 39.2 °F 37.0 °F 37.4 °F 93% 29.92 in 10.0 mi East 3.5 mph - N/A   Clear
9:15 PM 41.0 °F 37.1 °F 37.4 °F 87% 29.92 in 10.0 mi East 5.8 mph - N/A   Clear
9:16 PM 41.0 °F 37.1 °F 37.4 °F 87% 29.92 in 10.0 mi East 5.8 mph - N/A   Clear
9:35 PM 41.0 °F 37.1 °F 37.4 °F 87% 29.92 in 10.0 mi East 5.8 mph - N/A   Clear
9:55 PM 39.2 °F 34.2 °F 37.4 °F 93% 29.92 in 10.0 mi East 6.9 mph - N/A   Clear
9:56 PM 39.2 °F 34.2 °F 37.4 °F 93% 29.92 in 10.0 mi East 6.9 mph - N/A   Clear
10:15 PM 39.2 °F 35.0 °F 35.6 °F 87% 29.92 in 10.0 mi ESE 5.8 mph - N/A   Clear
10:16 PM 39.2 °F 35.9 °F 35.6 °F 87% 29.92 in 10.0 mi East 4.6 mph - N/A   Clear
10:35 PM 39.2 °F 35.0 °F 35.6 °F 87% 29.92 in 10.0 mi East 5.8 mph - N/A   Clear
10:36 PM 39.2 °F 35.0 °F 35.6 °F 87% 29.92 in 10.0 mi ESE 5.8 mph - N/A   Clear
10:55 PM 39.2 °F 35.0 °F 35.6 °F 87% 29.92 in 10.0 mi East 5.8 mph - N/A   Clear
11:15 PM 39.2 °F 35.9 °F 35.6 °F 87% 29.92 in 10.0 mi East 4.6 mph - N/A   Clear
11:16 PM 39.2 °F 37.0 °F 35.6 °F 87% 29.92 in 10.0 mi East 3.5 mph - N/A   Clear
11:35 PM 37.4 °F 34.9 °F 35.6 °F 93% 29.92 in 10.0 mi ESE 3.5 mph - N/A   Clear
11:36 PM 37.4 °F 33.8 °F 35.6 °F 93% 29.92 in 10.0 mi ESE 4.6 mph - N/A   Clear
11:55 PM 37.4 °F 34.9 °F 35.6 °F 93% 29.91 in 10.0 mi ESE 3.5 mph - N/A   Clear